{"data":{"norad_id":53532,"epoch":"2026-05-25T02:38:40.499808Z","epoch_age_seconds":62547,"freshness":"FRESH","line1":"1 53532U 22101F   26145.11019097  .00000708  00000+0  62590-4 0  9990","line2":"2 53532  53.2156  91.0525 0001477  75.6720 284.4436 15.08840239207707","mean_motion":15.08840239,"eccentricity":0.0001477,"inclination_deg":53.2156,"raan_deg":91.0525,"arg_perigee_deg":75.672,"mean_anomaly_deg":284.4436,"bstar":6.259e-5,"rev_number":20770,"period_min":95.437539560476,"perigee_km":538.72088761126,"apogee_km":540.76442926237,"semimajor_km":6917.8796584368,"source":"CELESTRAK","updated_at":"2026-05-25T13:38:17.440212Z"}}